Location: Banska Bystrica
(0.0000°N, 19.1500°E)
Time: 09:07:33
(UTC+01:00)

USA 215 - Pass Details

Date: 19 February 2019
Orbit: 1100 x 1108 km, 123.0° (Epoch: 09 March)

Event Time Altitude Azimuth Distance (km) Brightness Sun altitude
Exits shadow 20:19:30 68° 241° (WSW) 1,179 3.4 -34.8°
Drops below altitude 10° 20:25:11 10° 220° (SW) 2,967 6.0 -36.2°
Sets 20:27:40 0° 218° (SW) 3,926 6.8 -36.8°
